Cosmos 2322 - Orbit

View from above orbital plane
View from above orbital plane
View from above satellite
View from above satellite

Ground track
Ground track

The orbit data is extracted from the following two-line orbital elements,

1 23704U 95058A   13140.52428766  .00000290  00000-0  18016-3 0  7473
2 23704 070.9857 283.5332 0010242 192.8844 231.3197 14.13174135905511
Epoch (UTC): 20 May 2013 12:34:58
Eccentricity: 0.0010242
inclination: 70.9857°
perigee height: 841 km
apogee height: 856 km
right ascension of ascending node: 283.5332°
argument of perigee: 192.8844°
revolutions per day: 14.13174135
mean anomaly at epoch: 231.3197°
orbit number at epoch: 90551

The dashed part of the orbit path shows where the satellite is in the earth's shadow,  

Developed and maintained by Chris Peat, Heavens-Above GmbH. Please read the updated FAQ before sending e-mail. Imprint. DLR